Location: Kermapucano
(48.0667°N, 3.3000°W)
Time: 20:07:20
(UTC+00:00)

Okean O Rocket - Pass Details

Date: 29 November 2020
Orbit: 622 x 645 km, 98.2° (Epoch: 27 January)

Event Time Altitude Azimuth Distance (km) Brightness Sun altitude
Rises 06:13:56 0° 19° (NNE) 2,958 5.1 -13.9°
Reaches altitude 10° 06:16:15 10° 27° (NNE) 2,046 4.3 -13.5°
Maximum altitude 06:20:29 42° 99° (E) 922 3.0 -12.8°
Drops below altitude 10° 06:24:42 10° 170° (S) 2,038 4.6 -12.2°
Sets 06:27:00 0° 177° (S) 2,943 5.3 -11.8°
